Weather History for KBVY - May, 2013

Change the Weather History Date:

Friday, May 24, 2013

  Actual Average Record
Temperature  
Mean Temperature 62 °F -  
Max Temperature 70 °F 63 °F 84 °F (1981)
Min Temperature 53 °F 45 °F 42 °F (2005)
Degree Days  
Heating Degree Days 4    
Growing Degree Days 12 (Base 50)    
Moisture  
Dew Point 59 °F    
Average Humidity 89    
Maximum Humidity 94    
Minimum Humidity 77    
Precipitation  
Precipitation 0.86 in - - ()
Sea Level Pressure  
Sea Level Pressure 29.73 in    
Wind  
Wind Speed 8 mph (SW)    
Max Wind Speed 14 mph    
Max Gust Speed 18 mph    
Visibility 7 miles    
Events Rain    
Averages and records for this station are not official NWS values.
T = Trace of Precipitation, MM = Missing Value Source: NWS Daily Summary

Daily Weather History Graph

Daily Weather History Graph

Search for Another Location

Airport or City:

Trip Planner

Search our weather history database for the weather conditions in past years. The results will help you decide how hot, cold, wet, or windy it might be!

Date:

Astronomy

May. 24, 2013 Rise Set
Actual Time 5:13 AM EDT 8:08 PM EDT
Civil Twilight 4:40 AM EDT 8:41 PM EDT
Nautical Twilight 3:57 AM EDT 9:24 PM EDT
Astronomical Twilight 3:08 AM EDT 10:13 PM EDT
Moon 7:46 PM EDT (5/24) 4:44 AM EDT (5/24)
Length of Visible Light 16h 01m
Length of Day
14h 54m
Full, 100% of the Moon is Illuminated
May 24
Full
May 25
Full
May 31
Last Quarter
Jun 8
New
Jun 16
First Quarter

Hourly Weather History & Observations

Time (EDT) Temp. Dew Point Humidity Pressure Visibility Wind Dir Wind Speed Gust Speed Precip Events Conditions
12:20 AM 66.2 °F 62.6 °F 88% 29.80 in 7.0 mi South 9.2 mph - 0.01 in Rain Light Rain
12:32 AM 66.2 °F 62.6 °F 88% 29.80 in 10.0 mi South 10.4 mph - 0.02 in Rain Light Rain
12:41 AM 66.2 °F 64.4 °F 94% 29.80 in 10.0 mi South 9.2 mph - 0.02 in Rain Light Rain
12:53 AM 66.0 °F 63.0 °F 90% 29.78 in 10.0 mi South 10.4 mph - 0.02 in Rain Light Rain
1:00 AM 66.2 °F 64.4 °F 94% 29.79 in 10.0 mi South 8.1 mph - 0.00 in Rain Light Rain
1:08 AM 66.2 °F 62.6 °F 88% 29.79 in 10.0 mi South 10.4 mph - 0.01 in Rain Light Rain
1:53 AM 66.0 °F 63.0 °F 90% 29.76 in 8.0 mi South 10.4 mph - 0.04 in Rain Light Rain
2:08 AM 66.2 °F 62.6 °F 88% 29.77 in 7.0 mi South 10.4 mph - 0.02 in Rain Light Rain
2:53 AM 64.9 °F 62.1 °F 90% 29.73 in 4.0 mi South 8.1 mph - 0.09 in Rain Rain
2:58 AM 64.4 °F 62.6 °F 94% 29.74 in 4.0 mi South 8.1 mph - 0.01 in Rain Rain
3:23 AM 64.4 °F 62.6 °F 94% 29.73 in 10.0 mi SSE 6.9 mph - 0.03 in Rain Light Rain
3:28 AM 64.4 °F 62.6 °F 94% 29.73 in 9.0 mi SSE 8.1 mph - 0.03 in Rain Light Rain
3:53 AM 64.0 °F 62.1 °F 93% 29.70 in 6.0 mi SSE 9.2 mph - 0.07 in Rain Rain
4:14 AM 62.6 °F 60.8 °F 94% 29.70 in 6.0 mi SE 6.9 mph - 0.03 in Rain Light Rain
4:53 AM 62.1 °F 60.1 °F 93% 29.65 in 6.0 mi SE 5.8 mph - 0.06 in Rain Light Rain
5:10 AM 62.6 °F 60.8 °F 94% 29.67 in 2.0 mi SE 4.6 mph - 0.01 in Rain Light Rain
5:26 AM 62.6 °F 60.8 °F 94% 29.66 in 6.0 mi SE 4.6 mph - 0.02 in Rain Light Rain
5:48 AM 62.6 °F 60.8 °F 94% 29.66 in 10.0 mi South 4.6 mph - 0.02 in   Overcast
5:53 AM 64.0 °F 62.1 °F 93% 29.64 in 10.0 mi South 5.8 mph - 0.02 in   Overcast
6:27 AM 64.4 °F 62.6 °F 94% 29.65 in 10.0 mi SSW 4.6 mph - N/A   Overcast
6:53 AM 66.0 °F 63.0 °F 90% 29.64 in 10.0 mi South 8.1 mph - N/A   Overcast
7:53 AM 66.9 °F 64.0 °F 90% 29.66 in 10.0 mi South 8.1 mph - N/A   Overcast
8:53 AM 66.9 °F 63.0 °F 87% 29.68 in 10.0 mi SW 8.1 mph - N/A   Overcast
9:53 AM 66.9 °F 64.0 °F 90% 29.70 in 5.0 mi SSW 6.9 mph - 0.00 in Rain Light Rain
10:30 AM 68.0 °F 64.4 °F 88% 29.71 in 10.0 mi SSW 8.1 mph - 0.00 in   Overcast
10:53 AM 68.0 °F 64.0 °F 87% 29.70 in 10.0 mi South 4.6 mph - 0.00 in   Overcast
11:10 AM 69.8 °F 64.4 °F 83% 29.72 in 10.0 mi SSW 5.8 mph - N/A   Overcast
11:53 AM 70.0 °F 64.0 °F 81% 29.70 in 10.0 mi WSW 4.6 mph - 0.00 in Rain Light Rain
12:45 PM 69.8 °F 64.4 °F 83% 29.72 in 10.0 mi SSW 3.5 mph - 0.00 in Rain Light Rain
12:53 PM 69.1 °F 64.0 °F 84% 29.70 in 8.0 mi Calm Calm - 0.01 in Rain Light Rain
1:12 PM 68.0 °F 64.4 °F 88% 29.71 in 6.0 mi SE 5.8 mph - 0.01 in Rain Light Rain
1:48 PM 68.0 °F 64.4 °F 88% 29.71 in 8.0 mi SSE 4.6 mph - 0.02 in Rain Light Rain
1:49 PM 68.0 °F 64.9 °F 90% 29.69 in 8.0 mi SSE 4.6 mph - 0.02 in Rain Light Rain
2:29 PM 68.0 °F 64.4 °F 88% 29.70 in 9.0 mi SSE 4.6 mph - 0.00 in   Overcast
2:44 PM 68.0 °F 64.4 °F 88% 29.70 in 9.0 mi SE 4.6 mph - 0.00 in   Mostly Cloudy
2:53 PM 68.0 °F 64.9 °F 90% 29.68 in 9.0 mi SE 4.6 mph - 0.00 in   Mostly Cloudy
3:01 PM 69.8 °F 64.4 °F 83% 29.69 in 10.0 mi SSE 3.5 mph - N/A   Scattered Clouds
3:53 PM 69.1 °F 64.0 °F 84% 29.68 in 10.0 mi Variable 4.6 mph - N/A   Mostly Cloudy
4:02 PM 66.2 °F 60.8 °F 83% 29.70 in 10.0 mi NNW 13.8 mph 18.4 mph N/A   Mostly Cloudy
4:09 PM 64.4 °F 59.0 °F 83% 29.71 in 10.0 mi North 11.5 mph - N/A   Mostly Cloudy
4:53 PM 64.0 °F 60.1 °F 87% 29.70 in 9.0 mi North 4.6 mph - 0.02 in Rain Light Rain
5:18 PM 64.4 °F 57.2 °F 77% 29.72 in 10.0 mi NNW 9.2 mph - 0.01 in Rain Light Rain
5:53 PM 62.1 °F 57.0 °F 84% 29.71 in 10.0 mi North 8.1 mph - 0.01 in Rain Light Rain
6:32 PM 60.8 °F 55.4 °F 82% 29.75 in 1.8 mi NW 6.9 mph - 0.07 in Rain Heavy Rain
6:39 PM 60.8 °F 55.4 °F 82% 29.75 in 0.8 mi NW 8.1 mph - 0.16 in Rain Heavy Rain
6:46 PM 59.0 °F 55.4 °F 88% 29.75 in 1.5 mi NNW 6.9 mph - 0.19 in Rain Rain
6:53 PM 59.0 °F 55.0 °F 87% 29.75 in 2.5 mi NW 10.4 mph - 0.21 in Rain Rain
7:06 PM 57.2 °F 53.6 °F 88% 29.76 in 5.0 mi NNW 8.1 mph - 0.03 in Rain Light Rain
7:22 PM 57.2 °F 53.6 °F 88% 29.77 in 2.5 mi NNW 9.2 mph - 0.08 in Rain Rain
7:29 PM 57.2 °F 53.6 °F 88% 29.77 in 7.0 mi NNW 9.2 mph - 0.08 in Rain Light Rain
7:45 PM 57.2 °F 53.6 °F 88% 29.77 in 9.0 mi NW 8.1 mph - 0.08 in Rain Light Rain
7:53 PM 55.9 °F 53.1 °F 90% 29.76 in 3.0 mi NNW 11.5 mph - 0.10 in Rain Rain
7:55 PM 55.4 °F 51.8 °F 88% 29.77 in 2.5 mi NNW 10.4 mph - 0.00 in Rain Rain
8:07 PM 55.4 °F 51.8 °F 88% 29.78 in 3.0 mi NW 8.1 mph - 0.02 in Rain Rain
8:14 PM 55.4 °F 51.8 °F 88% 29.78 in 2.0 mi NW 9.2 mph - 0.07 in Rain Heavy Rain
8:29 PM 53.6 °F 51.8 °F 94% 29.79 in 4.0 mi NNW 10.4 mph - 0.10 in Rain Light Rain
8:44 PM 53.6 °F 51.8 °F 94% 29.80 in 4.0 mi NNW 6.9 mph - 0.12 in Rain Light Rain
8:53 PM 54.0 °F 51.1 °F 90% 29.79 in 3.0 mi NW 9.2 mph - 0.13 in Rain Light Rain
9:08 PM 53.6 °F 50.0 °F 88% 29.79 in 4.0 mi NNW 10.4 mph - 0.01 in Rain Light Rain
9:48 PM 53.6 °F 51.8 °F 94% 29.80 in 6.0 mi NNW 9.2 mph - 0.02 in Rain Light Rain
9:53 PM 53.1 °F 51.1 °F 93% 29.79 in 7.0 mi NNW 8.1 mph - 0.02 in Rain Light Rain
10:53 PM 53.1 °F 51.1 °F 93% 29.80 in 4.0 mi NNW 6.9 mph - 0.01 in Rain Light Rain
11:53 PM 53.1 °F 51.1 °F 93% 29.79 in 3.0 mi North 6.9 mph - 0.03 in Rain Light Rain